TimeEST,TemperatureF,Dew PointF,Humidity,Sea Level PressureIn,VisibilityMPH,Wind Direction,Wind SpeedMPH,Gust SpeedMPH,PrecipitationIn,Events,Conditions,WindDirDegrees,DateUTC
12:53 AM,37.0,24.1,59,30.18,10.0,South,8.1,-,N/A,,Partly Cloudy,190,2013-02-19 05:53:00
1:53 AM,36.0,26.1,67,30.15,10.0,South,10.4,-,N/A,,Overcast,180,2013-02-19 06:53:00
2:53 AM,39.0,25.0,57,30.10,10.0,South,6.9,-,N/A,,Overcast,180,2013-02-19 07:53:00
3:53 AM,39.0,27.0,62,30.10,10.0,SSW,5.8,-,N/A,,Overcast,210,2013-02-19 08:53:00
4:53 AM,39.0,27.0,62,30.08,10.0,Calm,Calm,-,N/A,,Overcast,0,2013-02-19 09:53:00
5:53 AM,39.0,28.9,67,30.09,10.0,SSW,3.5,-,0.00,Rain,Light Rain,210,2013-02-19 10:53:00
6:53 AM,37.0,35.1,93,30.07,8.0,SSW,3.5,-,0.06,Rain,Light Rain,210,2013-02-19 11:53:00
7:34 AM,37.4,35.6,93,30.07,2.0,SSW,3.5,-,0.07,Rain,Rain,210,2013-02-19 12:34:00
7:53 AM,37.0,37.0,100,30.07,2.5,SSW,3.5,-,0.10,Rain,Light Rain,210,2013-02-19 12:53:00
8:53 AM,37.9,37.9,100,30.05,2.5,SSW,6.9,-,0.03,Rain,Light Rain,200,2013-02-19 13:53:00
9:00 AM,37.4,37.4,100,30.05,3.0,SSW,6.9,-,0.00,Rain,Light Rain,210,2013-02-19 14:00:00
9:09 AM,37.4,37.4,100,30.05,3.0,SSW,6.9,-,0.01,Rain,Light Rain,200,2013-02-19 14:09:00
9:43 AM,39.2,37.4,93,30.02,3.0,South,6.9,-,0.02,,Overcast,180,2013-02-19 14:43:00
9:53 AM,39.0,37.9,96,30.03,5.0,South,6.9,-,0.02,Rain,Light Rain,180,2013-02-19 14:53:00
10:53 AM,41.0,39.9,96,30.02,10.0,SW,8.1,-,0.00,,Overcast,220,2013-02-19 15:53:00
11:17 AM,41.0,39.2,93,30.01,10.0,WSW,5.8,-,N/A,,Overcast,240,2013-02-19 16:17:00
11:53 AM,42.1,39.9,92,30.00,10.0,WSW,8.1,-,N/A,,Overcast,240,2013-02-19 16:53:00
1:14 PM,44.6,41.0,87,29.95,10.0,WSW,10.4,-,N/A,,Overcast,240,2013-02-19 18:14:00
1:53 PM,46.0,42.1,86,29.94,10.0,WSW,9.2,18.4,N/A,,Overcast,250,2013-02-19 18:53:00
2:53 PM,50.0,43.0,77,29.91,10.0,WSW,6.9,16.1,N/A,,Mostly Cloudy,240,2013-02-19 19:53:00
3:53 PM,51.1,42.1,71,29.90,10.0,WSW,9.2,-,N/A,,Mostly Cloudy,250,2013-02-19 20:53:00
3:55 PM,51.8,42.8,71,29.89,10.0,SW,12.7,-,N/A,,Partly Cloudy,230,2013-02-19 20:55:00
4:53 PM,53.1,42.1,66,29.90,10.0,SW,18.4,21.9,N/A,,Partly Cloudy,230,2013-02-19 21:53:00
5:53 PM,50.0,39.0,66,29.91,10.0,SW,12.7,-,N/A,,Clear,220,2013-02-19 22:53:00
7:53 PM,44.1,30.0,58,29.98,10.0,West,9.2,-,N/A,,Clear,270,2013-02-20 00:53:00
8:53 PM,43.0,23.0,45,29.99,10.0,NW,6.9,-,N/A,,Clear,310,2013-02-20 01:53:00
9:53 PM,41.0,19.9,43,30.01,10.0,WNW,5.8,-,N/A,,Clear,300,2013-02-20 02:53:00
10:53 PM,39.9,18.0,41,30.02,10.0,West,6.9,-,N/A,,Clear,280,2013-02-20 03:53:00
11:53 PM,41.0,14.0,33,30.03,10.0,West,8.1,-,N/A,,Clear,260,2013-02-20 04:53:00